Theta_e
317 314 317 317 311 311 311 312 312 313 313 311 311 309 307 303 300 298 296 295 295 294 294 295 294 293 292 293 293 292 293 293 293 294 294 293 295 295 299 299 300 300 303 301
318 319 312 311 311 313 313 312 312 311 312 310 309 309 303 301 300 298 296 296 295 293 293 294 294 292 292 292 292 292 293 293 293 293 293 293 293 295 295 298 299 300 299 300
315 316 310 310 311 312 311 311 311 311 309 307 307 307 303 299 298 298 297 297 294 292 293 292 292 292 291 292 292 292 292 292 292 293 293 292 293 294 295 295 297 299 299 299
310 309 311 312 312 310 311 306 307 308 308 306 305 305 305 298 297 297 296 293 292 292 292 292 292 291 291 292 292 291 291 291 291 292 291 292 291 292 293 294 295 296 299 299
313 309 308 309 309 309 310 305 305 306 306 306 305 304 305 300 298 297 295 294 292 292 292 290 291 292 291 291 291 290 289 289 289 288 287 288 290 290 290 292 294 295 297 298
308 307 308 308 310 308 305 306 306 305 304 306 305 305 306 301 301 296 294 292 292 292 291 291 292 291 291 290 290 289 288 287 286 284 282 282 284 284 287 290 292 293 295 298
312 308 307 305 308 307 307 305 306 310 308 309 302 301 303 297 296 294 293 292 291 290 290 290 291 291 290 289 289 287 285 284 282 281 280 280 280 281 283 285 289 293 295 297
312 313 309 305 307 304 305 304 305 306 310 307 300 300 303 297 295 294 293 292 291 290 290 290 290 290 289 289 288 286 284 283 281 280 279 279 279 279 280 283 285 286 291 296
312 311 302 299 301 302 305 303 301 303 294 298 299 302 298 296 295 294 293 291 290 290 290 290 290 289 289 288 286 284 283 281 280 279 278 278 278 278 279 280 282 284 286 292
307 308 304 297 298 298 298 300 300 299 296 300 302 302 301 296 295 293 292 291 290 290 290 289 289 289 288 287 285 284 282 280 279 278 277 276 277 277 277 279 280 282 285 287
304 305 303 299 298 299 296 296 296 297 301 301 299 300 295 294 295 293 292 291 290 290 289 288 288 288 287 286 284 282 281 279 278 277 276 275 275 275 277 277 278 280 282 283
301 303 303 303 296 295 295 297 296 295 298 295 297 297 298 297 293 292 292 290 290 290 288 288 288 287 286 285 283 281 280 278 277 276 275 275 273 275 274 276 278 279 279 283
297 301 306 306 296 293 293 293 294 295 295 296 299 298 294 294 293 292 290 289 289 289 288 288 287 286 285 283 281 279 278 277 277 275 274 273 273 273 273 274 274 276 278 279
299 301 305 317 311 296 294 293 293 293 294 296 296 296 296 296 296 292 289 289 289 288 288 288 286 284 283 282 280 278 277 276 276 275 274 273 272 271 272 273 274 275 276 279
299 302 302 301 298 297 297 295 293 293 293 294 296 295 296 296 292 291 289 290 289 288 288 286 284 283 282 280 278 276 275 275 274 273 272 272 272 271 271 271 272 273 277 278
298 300 301 300 295 294 294 294 294 294 294 293 294 294 295 295 292 289 290 289 288 288 285 284 283 281 280 278 276 275 274 273 273 272 272 271 271 271 271 271 272 273 276 278
300 298 299 303 296 296 297 295 294 294 294 294 293 294 294 292 291 290 289 288 288 285 284 282 281 279 278 276 275 273 272 272 271 271 270 270 270 271 270 271 271 272 273 274
299 298 299 299 298 300 299 292 292 293 294 294 294 294 292 290 290 290 289 285 284 284 282 281 279 277 275 274 273 272 271 271 271 270 270 270 269 269 269 270 270 271 272 274
298 298 297 298 298 298 298 295 289 289 291 292 293 293 291 289 289 289 285 284 283 281 280 278 277 275 274 272 271 270 269 270 270 270 269 268 268 267 268 268 269 270 271 272
297 297 298 296 297 297 292 289 289 289 289 290 291 289 289 289 287 287 284 282 281 279 278 276 274 273 272 271 269 269 269 268 269 268 267 266 266 266 267 268 269 270 270 272
296 296 296 297 297 295 295 289 290 290 295 290 289 289 289 289 288 285 282 281 279 277 275 274 272 271 270 269 268 267 267 267 267 266 265 264 264 265 269 272 273 272 272 273
295 294 295 295 296 296 292 289 290 291 290 290 289 289 289 288 286 283 281 278 276 275 273 272 271 269 268 267 266 265 266 265 265 263 262 263 265 269 270 272 274 276 274 275
296 296 295 294 295 293 290 291 290 291 290 290 289 288 286 285 283 281 278 276 275 273 272 270 268 267 267 266 265 264 264 263 262 261 262 264 267 268 270 271 273 279 278 278
294 294 295 295 295 293 292 291 290 290 290 289 287 284 282 281 280 277 276 275 273 271 270 268 267 266 265 264 263 262 262 261 260 260 263 265 266 267 269 270 272 275 279 285
295 294 295 295 294 293 292 291 291 290 288 285 282 281 281 279 277 276 274 272 271 269 268 266 265 264 263 262 261 260 259 259 259 261 263 264 265 266 267 269 270 272 275 279
294 294 296 296 295 294 293 291 290 289 286 284 281 278 277 277 275 273 271 270 269 267 266 264 263 262 261 260 259 258 258 257 258 261 263 263 264 265 266 267 268 269 271 274
Wind_Speed
0 1 7 5 5 4 5 7 10 10 3 1 7 8 7 11 9 9 7 6 5 6 11 15 15 21 28 26 29 33 34 36 37 36 33 34 34 36 33 34 38 31 29 37
5 7 4 3 3 4 6 9 11 5 4 3 9 15 7 13 10 9 7 4 5 6 7 12 16 23 28 30 34 38 38 40 41 38 35 38 40 37 36 35 36 36 29 31
4 7 3 3 5 7 7 8 5 4 7 10 17 14 10 8 6 7 7 4 6 7 6 6 12 20 31 32 35 37 41 43 43 43 35 44 40 36 31 34 33 33 29 26
8 3 2 5 6 4 5 4 3 7 5 4 7 7 4 14 11 9 7 7 5 5 5 6 12 26 31 31 35 38 40 43 43 36 43 38 36 38 34 35 34 35 31 26
8 2 3 4 3 2 3 2 6 10 11 10 10 6 5 19 13 11 7 6 6 5 5 7 15 26 30 31 36 37 41 40 39 42 43 41 39 37 43 42 34 37 31 25
13 6 3 2 1 2 7 6 9 12 8 5 8 6 4 10 15 10 7 6 5 4 5 10 23 27 29 33 36 36 37 39 39 40 44 43 41 40 38 39 37 38 31 27
1 10 4 1 4 5 3 5 4 5 1 6 5 5 7 6 10 10 7 5 5 5 10 11 15 24 28 35 34 38 41 43 42 41 40 37 39 43 39 37 35 36 26 24
4 4 7 5 1 1 2 0 4 6 3 5 7 7 4 13 11 9 7 6 6 8 6 11 16 25 29 31 36 38 40 44 44 42 41 38 37 36 37 35 34 35 37 29
4 4 3 4 3 1 4 4 2 2 2 2 5 6 5 12 9 7 6 7 6 6 7 10 20 26 23 31 33 35 37 42 41 40 41 39 37 37 36 38 37 34 37 36
4 7 2 3 1 2 2 2 4 1 3 6 5 7 5 8 5 5 5 4 3 5 10 11 17 20 28 29 33 34 35 36 39 41 36 40 38 37 41 38 37 36 34 38
1 4 2 4 7 7 4 3 4 1 4 5 3 4 7 7 7 3 2 3 7 7 8 11 18 22 28 27 31 34 35 37 39 36 38 40 39 39 36 36 37 33 31 35
6 4 5 7 3 3 1 6 9 4 5 4 3 14 4 4 9 7 2 4 4 7 9 14 15 26 29 30 34 36 40 40 40 40 41 36 43 37 41 36 34 31 33 30
7 3 3 6 3 1 5 6 4 5 3 16 5 9 5 8 8 3 6 4 6 9 13 15 15 21 26 29 34 37 38 41 41 44 40 39 39 37 38 38 41 37 34 30
4 5 10 18 8 5 6 8 10 13 12 21 25 31 15 15 15 6 6 6 7 10 14 12 15 20 27 29 33 37 41 39 42 43 42 41 39 38 37 35 39 38 35 29
5 8 11 21 16 9 14 9 14 19 24 18 34 22 23 12 5 3 3 5 8 12 13 12 15 15 27 30 35 39 39 41 41 44 42 41 42 40 38 37 35 38 35 26
5 4 6 14 6 10 18 17 17 22 26 25 27 32 18 16 8 3 4 6 9 11 9 13 17 21 26 30 37 41 42 42 43 42 42 43 41 41 38 36 32 37 34 29
8 5 4 6 4 8 15 23 27 27 21 23 22 29 13 8 2 1 3 6 7 8 11 14 16 21 29 33 38 41 43 45 43 41 41 40 41 39 39 38 35 34 34 33
8 6 4 1 4 7 3 2 4 13 20 19 24 22 4 2 3 2 4 3 4 8 11 12 17 26 30 32 37 40 41 40 40 40 40 38 42 41 41 38 35 34 31 31
7 7 4 4 7 11 16 5 7 8 7 12 18 14 4 6 4 4 7 3 2 6 10 15 20 27 31 32 35 39 41 39 38 37 41 41 41 42 41 38 36 34 32 30
8 8 6 4 5 8 2 2 7 6 10 15 11 7 6 6 1 4 3 5 5 10 13 16 22 25 27 31 33 35 36 38 37 42 43 43 43 41 41 40 38 35 31 31
7 5 16 12 8 9 7 10 6 5 4 3 6 7 6 5 5 4 4 1 4 10 14 17 18 21 26 33 34 34 35 34 42 42 44 43 42 43 39 38 35 33 30 27
13 12 6 8 7 16 13 8 9 4 7 10 6 7 6 5 2 2 3 3 5 8 14 17 20 23 26 28 30 32 32 41 44 43 43 43 43 40 38 36 35 29 26 25
7 10 8 14 8 1 20 4 10 4 7 7 8 6 7 6 5 3 2 4 7 13 16 17 19 25 25 27 29 32 38 42 45 43 40 42 41 40 37 35 32 27 18 20
10 13 4 5 9 11 12 7 8 7 5 6 5 7 8 6 6 4 2 3 6 11 13 17 20 22 26 29 30 29 36 41 41 39 39 40 40 42 38 33 28 26 23 18
7 16 13 5 9 1 8 12 10 8 8 8 7 6 7 7 5 4 2 2 5 9 11 14 17 20 25 30 31 32 36 40 39 37 36 38 37 37 38 32 30 27 24 24
8 10 10 8 11 13 7 13 10 13 12 11 10 6 5 6 6 4 3 2 4 8 11 14 17 20 24 28 31 34 37 37 36 34 34 37 36 35 34 34 33 28 28 27
Wind_Direction
353 309 281 42 53 328 271 261 270 277 127 191 244 261 265 149 137 134 121 100 68 51 21 14 14 7 354 343 342 334 326 324 318 314 313 311 301 300 299 301 300 307 309 317
317 271 60 21 286 251 270 269 273 286 146 340 267 260 135 164 166 143 129 112 64 27 21 11 10 359 349 340 337 334 328 324 320 309 308 308 300 292 294 293 294 294 305 306
294 281 49 289 297 283 281 280 307 285 313 274 273 269 151 159 130 141 157 141 58 33 7 358 360 352 349 340 335 331 326 321 319 310 312 309 297 291 289 291 287 289 293 301
269 80 39 311 278 285 280 51 317 279 303 240 54 286 104 167 172 180 154 87 50 16 3 340 345 359 345 334 330 327 324 322 316 318 315 310 312 298 297 283 288 289 290 296
250 275 306 276 278 82 251 343 257 259 251 284 254 255 288 158 188 181 141 92 44 12 358 324 1 351 336 330 328 327 323 321 320 315 312 308 300 304 302 295 286 287 288 287
248 122 213 294 98 188 323 287 273 251 256 266 258 226 217 179 197 142 124 71 41 357 324 353 357 335 330 331 328 329 328 323 321 320 315 308 309 316 318 304 290 288 286 283
252 210 111 179 265 157 227 290 325 332 27 230 85 334 246 142 104 125 107 62 32 352 12 358 335 335 330 332 330 331 328 323 323 321 317 315 312 309 307 306 317 291 280 277
265 298 168 152 210 90 203 10 163 259 261 267 14 252 245 127 128 135 87 70 31 19 353 337 331 330 330 330 329 329 326 323 322 321 319 316 311 306 307 302 309 307 311 278
308 240 95 31 45 117 147 198 360 332 62 353 232 262 76 139 152 96 43 37 22 347 337 334 333 328 329 326 326 324 324 321 319 319 318 315 311 309 308 309 306 299 304 310
351 300 49 91 126 132 264 155 85 142 292 266 251 252 232 185 159 81 19 358 335 347 344 335 326 317 330 322 322 320 321 319 317 318 315 315 310 308 305 302 304 304 302 301
51 204 158 127 202 180 165 224 223 337 196 220 293 249 154 158 167 130 340 10 7 343 329 328 316 326 324 321 319 319 321 322 320 319 319 314 312 306 303 304 301 302 305 305
197 239 245 246 78 41 301 220 181 165 240 252 246 261 328 335 148 127 77 32 331 331 327 325 321 328 324 324 324 323 323 324 322 319 318 316 314 307 304 299 299 303 305 303
177 220 327 287 359 129 235 204 242 254 232 235 236 252 123 156 185 54 58 4 345 331 331 319 327 325 323 323 324 322 320 320 321 320 316 315 313 308 304 302 298 298 297 294
150 212 204 256 266 142 223 219 212 220 237 254 237 259 255 270 291 350 19 351 346 331 326 321 327 322 322 323 322 321 319 319 320 318 315 312 311 307 302 299 299 295 291 287
172 231 230 255 273 278 268 255 219 218 234 231 261 246 265 263 282 330 351 342 331 328 320 331 320 318 321 323 322 321 318 319 320 318 316 312 310 307 303 300 296 293 285 275
180 244 243 267 268 267 265 247 244 245 241 247 256 271 260 285 281 21 336 351 322 314 330 324 318 319 321 325 323 321 318 319 320 315 315 312 311 308 303 301 296 296 299 278
185 199 174 248 63 337 283 234 232 242 237 237 245 250 286 262 242 9 2 325 322 334 323 322 320 319 322 323 322 317 317 316 316 314 314 313 311 310 307 301 296 292 292 290
182 173 175 273 101 251 248 200 235 241 250 245 251 255 217 150 111 5 4 74 336 316 325 321 320 318 318 317 316 316 315 314 315 315 316 317 314 309 307 302 295 291 285 282
183 171 179 216 201 299 295 204 173 182 251 228 235 244 167 119 81 305 90 85 304 332 317 319 318 314 314 316 319 317 316 316 317 320 322 318 317 311 306 300 295 289 283 278
186 201 203 165 223 236 163 116 96 95 269 219 207 209 152 103 162 246 70 38 337 318 318 318 316 316 314 320 320 316 316 322 322 325 322 319 316 309 302 296 291 286 279 274
185 200 220 227 239 273 216 154 141 148 250 111 152 135 150 187 209 135 72 35 317 315 318 321 321 315 321 323 326 323 322 322 323 322 322 320 316 308 303 302 295 279 273 272
176 171 194 205 221 252 149 133 190 183 140 140 141 164 191 198 84 359 347 327 319 325 330 329 324 327 329 326 327 323 325 326 325 325 325 323 320 321 317 313 307 293 263 266
203 192 178 197 212 111 169 168 198 165 161 170 154 155 165 160 199 194 285 325 333 334 330 331 332 328 330 332 334 328 328 329 328 326 328 328 327 327 327 324 321 322 261 261
226 207 218 155 219 225 198 202 165 194 152 138 140 147 162 170 161 184 216 326 325 326 332 337 338 331 326 335 334 331 330 331 329 328 333 334 333 332 334 334 334 332 335 298
183 172 194 244 265 238 208 211 213 163 137 130 138 153 167 159 163 167 142 289 307 316 335 342 336 327 326 333 334 337 337 336 333 334 338 340 336 337 335 338 338 337 342 340
186 173 185 212 195 203 198 202 179 161 173 168 153 147 159 162 154 136 183 260 307 334 346 345 337 333 331 335 337 339 341 340 336 337 344 342 337 341 340 340 341 348 354 357